When you browse on this site, cookies collect data to enhance your experience and personalize the content and advertising you see.
Visit our Privacy Policy to learn more. By continuing to use the site, you agree to this use of cookies and data.
  • In Hungary
  • List of Countries
  • For 7 days
  • Water Temperature
  • Weather Map
  • News
  • Weather Widgets
  • user-avatar
    Login

    Hourly Weather Zarechnoe

    Today, 5 June, Friday

    Time Temperature Precipitation Wind Pressure Humidity
    00:00 +19°C° 0.1 mm 3 mps 752 mmHg 66%
    01:00 +19°C° 0.1 mm 3 mps 752 mmHg 59%
    02:00 +19°C° 0 mm 4 mps 752 mmHg 59%
    03:00 +18°C° 0 mm 4 mps 753 mmHg 58%
    04:00 +17°C° 0 mm 5 mps 753 mmHg 57%
    05:00 +18°C° 0.1 mm 4 mps 753 mmHg 59%
    06:00 +18°C° 0.1 mm 4 mps 753 mmHg 62%
    07:00 +18°C° 0.1 mm 4 mps 753 mmHg 64%
    08:00 +17°C° 0.1 mm 5 mps 754 mmHg 63%
    09:00 +19°C° 0.1 mm 6 mps 754 mmHg 62%
    10:00 +20°C° 0.1 mm 7 mps 754 mmHg 61%
    11:00 +21°C° 0 mm 7 mps 754 mmHg 58%
    12:00 +22°C° 0 mm 7 mps 754 mmHg 54%
    13:00 +23°C° 0 mm 7 mps 754 mmHg 51%
    14:00 +24°C° 0 mm 7 mps 754 mmHg 50%
    15:00 +24°C° 0 mm 7 mps 754 mmHg 48%
    16:00 +26°C° 0 mm 7 mps 754 mmHg 46%
    17:00 +24°C° 0 mm 6 mps 754 mmHg 50%
    18:00 +23°C° 0 mm 6 mps 753 mmHg 53%
    19:00 +22°C° 0 mm 5 mps 753 mmHg 57%
    20:00 +22°C° 0.1 mm 5 mps 753 mmHg 55%
    21:00 +21°C° 0.1 mm 5 mps 754 mmHg 54%
    22:00 +21°C° 0.1 mm 5 mps 754 mmHg 53%
    23:00 +19°C° 0.4 mm 5 mps 754 mmHg 60%

    Tomorrow, 6 June, Saturday

    Time Temperature Precipitation Wind Pressure Humidity
    00:00 +17°C° 0.4 mm 5 mps 754 mmHg 68%
    01:00 +16°C° 0.4 mm 5 mps 754 mmHg 75%
    02:00 +16°C° 0.5 mm 5 mps 754 mmHg 74%
    03:00 +16°C° 0.5 mm 5 mps 754 mmHg 73%
    04:00 +15°C° 0.5 mm 6 mps 754 mmHg 71%
    05:00 +16°C° 0.4 mm 5 mps 754 mmHg 77%
    06:00 +16°C° 0.4 mm 5 mps 754 mmHg 83%
    07:00 +16°C° 0.4 mm 5 mps 755 mmHg 89%
    08:00 +16°C° 1.6 mm 5 mps 755 mmHg 87%
    09:00 +17°C° 1.6 mm 4 mps 755 mmHg 84%
    10:00 +17°C° 1.6 mm 4 mps 755 mmHg 81%
    11:00 +18°C° 0.1 mm 4 mps 755 mmHg 77%
    12:00 +18°C° 0.1 mm 4 mps 755 mmHg 72%
    13:00 +19°C° 0.1 mm 4 mps 756 mmHg 68%
    14:00 +20°C° 0 mm 5 mps 756 mmHg 63%
    15:00 +21°C° 0 mm 5 mps 756 mmHg 59%
    16:00 +22°C° 0 mm 6 mps 756 mmHg 55%
    17:00 +21°C° 0 mm 6 mps 756 mmHg 57%
    18:00 +20°C° 0 mm 5 mps 756 mmHg 59%
    19:00 +20°C° 0 mm 4 mps 755 mmHg 62%
    20:00 +18°C° 0 mm 4 mps 756 mmHg 65%
    21:00 +16°C° 0 mm 5 mps 756 mmHg 68%
    22:00 +15°C° 0 mm 5 mps 756 mmHg 71%
    23:00 +14°C° 0 mm 4 mps 756 mmHg 73%

    Day after tomorrow, 7 June, Sunday

    Time Temperature Precipitation Wind Pressure Humidity
    00:00 +14°C° 0 mm 4 mps 756 mmHg 75%
    01:00 +13°C° 0 mm 4 mps 756 mmHg 77%
    02:00 +13°C° 0.2 mm 4 mps 756 mmHg 78%
    03:00 +13°C° 0.2 mm 3 mps 756 mmHg 80%
    04:00 +12°C° 0.2 mm 3 mps 756 mmHg 81%
    05:00 +13°C° 0 mm 3 mps 756 mmHg 79%
    06:00 +14°C° 0 mm 4 mps 756 mmHg 76%
    07:00 +15°C° 0 mm 4 mps 756 mmHg 74%
    08:00 +18°C° 0 mm 4 mps 756 mmHg 68%
    09:00 +19°C° 0 mm 4 mps 756 mmHg 63%
    10:00 +21°C° 0 mm 4 mps 756 mmHg 58%
    11:00 +22°C° 0 mm 4 mps 756 mmHg 54%
    12:00 +25°C° 0 mm 4 mps 756 mmHg 50%
    13:00 +26°C° 0 mm 4 mps 756 mmHg 45%
    14:00 +26°C° 0 mm 4 mps 756 mmHg 44%
    15:00 +27°C° 0 mm 4 mps 756 mmHg 43%
    16:00 +27°C° 0 mm 4 mps 755 mmHg 41%
    17:00 +26°C° 0 mm 4 mps 755 mmHg 46%
    18:00 +25°C° 0 mm 4 mps 755 mmHg 50%
    19:00 +24°C° 0 mm 3 mps 755 mmHg 55%
    20:00 +22°C° 0 mm 4 mps 755 mmHg 55%
    21:00 +21°C° 0 mm 5 mps 755 mmHg 56%
    22:00 +20°C° 0 mm 5 mps 755 mmHg 56%
    23:00 +19°C° 0 mm 5 mps 755 mmHg 55%

    8 June, Monday

    Time Temperature Precipitation Wind Pressure Humidity
    00:00 +19°C° 0 mm 5 mps 755 mmHg 54%
    01:00 +17°C° 0 mm 5 mps 755 mmHg 52%
    02:00 +17°C° 0 mm 5 mps 756 mmHg 53%
    03:00 +16°C° 0 mm 5 mps 756 mmHg 53%
    04:00 +17°C° 0 mm 4 mps 756 mmHg 53%
    05:00 +17°C° 0 mm 5 mps 756 mmHg 55%
    06:00 +17°C° 0 mm 5 mps 756 mmHg 56%
    07:00 +19°C° 0 mm 5 mps 756 mmHg 57%
    08:00 +21°C° 0 mm 6 mps 757 mmHg 52%
    09:00 +23°C° 0 mm 6 mps 757 mmHg 48%
    10:00 +26°C° 0 mm 6 mps 757 mmHg 43%
    11:00 +26°C° 0 mm 6 mps 757 mmHg 41%
    12:00 +27°C° 0 mm 6 mps 757 mmHg 39%
    13:00 +28°C° 0 mm 6 mps 757 mmHg 37%
    14:00 +28°C° 0 mm 6 mps 757 mmHg 37%
    15:00 +28°C° 0 mm 6 mps 757 mmHg 38%
    16:00 +28°C° 0 mm 6 mps 757 mmHg 38%
    17:00 +27°C° 0 mm 6 mps 757 mmHg 43%
    18:00 +26°C° 0 mm 5 mps 757 mmHg 48%
    19:00 +25°C° 0 mm 4 mps 757 mmHg 53%
    20:00 +23°C° 0 mm 4 mps 757 mmHg 54%
    21:00 +21°C° 0 mm 5 mps 758 mmHg 55%
    22:00 +20°C° 0 mm 5 mps 758 mmHg 56%
    23:00 +19°C° 0 mm 5 mps 758 mmHg 57%

    9 June, Tuesday

    Time Temperature Precipitation Wind Pressure Humidity
    00:00 +19°C° 0 mm 5 mps 758 mmHg 57%
    01:00 +18°C° 0 mm 4 mps 758 mmHg 58%
    02:00 +18°C° 0 mm 4 mps 758 mmHg 59%
    03:00 +18°C° 0 mm 4 mps 759 mmHg 60%
    04:00 +17°C° 0 mm 4 mps 759 mmHg 61%
    05:00 +18°C° 0 mm 4 mps 759 mmHg 60%
    06:00 +19°C° 0 mm 4 mps 759 mmHg 59%
    07:00 +21°C° 0 mm 5 mps 760 mmHg 59%
    08:00 +22°C° 0 mm 4 mps 760 mmHg 54%
    09:00 +25°C° 0 mm 4 mps 760 mmHg 49%
    10:00 +27°C° 0 mm 4 mps 760 mmHg 44%
    11:00 +28°C° 0 mm 4 mps 760 mmHg 41%
    12:00 +28°C° 0 mm 5 mps 760 mmHg 39%
    13:00 +29°C° 0 mm 5 mps 760 mmHg 36%
    14:00 +29°C° 0 mm 4 mps 760 mmHg 37%
    15:00 +29°C° 0 mm 4 mps 760 mmHg 39%
    16:00 +29°C° 0 mm 4 mps 760 mmHg 41%
    17:00 +28°C° 0 mm 3 mps 759 mmHg 45%
    18:00 +27°C° 0 mm 3 mps 759 mmHg 49%
    19:00 +26°C° 0 mm 3 mps 759 mmHg 53%
    20:00 +25°C° 0 mm 3 mps 759 mmHg 53%
    21:00 +22°C° 0 mm 3 mps 759 mmHg 52%
    22:00 +21°C° 0 mm 3 mps 759 mmHg 51%
    23:00 +20°C° 0 mm 3 mps 759 mmHg 52%

    10 June, Wednesday

    Time Temperature Precipitation Wind Pressure Humidity
    00:00 +20°C° 0 mm 3 mps 760 mmHg 53%
    01:00 +19°C° 0 mm 3 mps 760 mmHg 54%
    02:00 +19°C° 0 mm 3 mps 760 mmHg 58%
    03:00 +18°C° 0 mm 3 mps 760 mmHg 63%
    04:00 +18°C° 0 mm 4 mps 759 mmHg 68%
    05:00 +19°C° 0 mm 4 mps 760 mmHg 67%
    06:00 +21°C° 0 mm 4 mps 760 mmHg 66%
    07:00 +22°C° 0 mm 3 mps 760 mmHg 65%
    08:00 +25°C° 0 mm 3 mps 760 mmHg 59%
    09:00 +26°C° 0 mm 3 mps 759 mmHg 53%
    10:00 +28°C° 0 mm 3 mps 759 mmHg 47%
    11:00 +29°C° 0 mm 3 mps 759 mmHg 42%
    12:00 +30°C° 0 mm 3 mps 759 mmHg 37%
    13:00 +31°C° 0 mm 3 mps 759 mmHg 32%
    14:00 +31°C° 0 mm 2 mps 759 mmHg 34%
    15:00 +30°C° 0 mm 2 mps 759 mmHg 37%
    16:00 +30°C° 0 mm 2 mps 759 mmHg 39%
    17:00 +29°C° 0 mm 2 mps 759 mmHg 44%
    18:00 +28°C° 0 mm 2 mps 758 mmHg 49%
    19:00 +27°C° 0 mm 3 mps 758 mmHg 54%
    20:00 +25°C° 0 mm 3 mps 758 mmHg 56%
    21:00 +24°C° 0 mm 3 mps 758 mmHg 58%
    22:00 +22°C° 0 mm 3 mps 758 mmHg 60%
    23:00 +21°C° 0 mm 3 mps 758 mmHg 60%
    Show more